Time,TemperatureF,DewpointF,PressureIn,WindDirection,WindDirectionDegrees,WindSpeedMPH,WindSpeedGustMPH,Humidity,HourlyPrecipIn,Conditions,Clouds,dailyrainin,SoftwareType,DateUTC
2013-06-18 00:02:00,68.0,68.0,29.93,SW,220,3.0,-999.0,100,-99.99,,,-99.99,,2013-06-18 04:02:00,
2013-06-18 00:12:00,70.0,70.0,29.93,SW,230,3.0,-999.0,100,-99.99,,,-99.99,,2013-06-18 04:12:00,
2013-06-18 00:23:00,68.0,68.0,29.93,West,260,6.0,-999.0,100,-99.99,,,-99.99,,2013-06-18 04:23:00,
2013-06-18 00:34:00,68.0,68.0,29.94,West,280,6.0,-999.0,100,-99.99,,,-99.99,,2013-06-18 04:34:00,
2013-06-18 00:43:00,68.0,68.0,29.94,WNW,300,6.0,-999.0,100,-99.99,,,-99.99,,2013-06-18 04:43:00,
2013-06-18 00:53:00,70.0,70.0,29.93,West,260,5.0,-999.0,100,-99.99,,,-99.99,,2013-06-18 04:53:00,
2013-06-18 01:02:00,68.0,68.0,29.93,West,280,5.0,-999.0,100,-99.99,,,-99.99,,2013-06-18 05:02:00,
2013-06-18 01:12:00,70.0,70.0,29.92,West,270,1.0,-999.0,100,-99.99,,,-99.99,,2013-06-18 05:12:00,
2013-06-18 01:22:00,68.0,68.0,29.92,South,180,5.0,-999.0,100,-99.99,,,-99.99,,2013-06-18 05:22:00,
2013-06-18 01:34:00,68.0,68.0,29.92,SW,220,2.0,-999.0,100,-99.99,,,-99.99,,2013-06-18 05:34:00,
2013-06-18 01:43:00,68.0,68.0,29.92,South,190,3.0,-999.0,100,-99.99,,,-99.99,,2013-06-18 05:43:00,
2013-06-18 01:53:00,70.0,70.0,29.92,North,0,0.0,-999.0,100,-99.99,,,-99.99,,2013-06-18 05:53:00,
2013-06-18 02:02:00,68.0,68.0,29.92,North,0,0.0,-999.0,100,-99.99,,,-99.99,,2013-06-18 06:02:00,
2013-06-18 02:12:00,70.0,70.0,29.92,North,0,0.0,-999.0,100,-99.99,,,-99.99,,2013-06-18 06:12:00,
2013-06-18 02:23:00,68.0,68.0,29.91,North,0,0.0,-999.0,100,-99.99,,,-99.99,,2013-06-18 06:23:00,
2013-06-18 02:32:00,68.0,68.0,29.90,North,0,0.0,-999.0,100,-99.99,,,-99.99,,2013-06-18 06:32:00,
2013-06-18 02:43:00,68.0,68.0,29.90,North,0,0.0,-999.0,100,-99.99,,,-99.99,,2013-06-18 06:43:00,
2013-06-18 02:52:00,68.0,68.0,29.90,North,0,0.0,-999.0,100,-99.99,,,-99.99,,2013-06-18 06:52:00,
2013-06-18 03:02:00,68.0,68.0,29.90,North,0,0.0,-999.0,100,-99.99,,,-99.99,,2013-06-18 07:02:00,
2013-06-18 03:12:00,68.0,68.0,29.90,South,190,5.0,-999.0,100,-99.99,,,-99.99,,2013-06-18 07:12:00,
2013-06-18 03:22:00,66.0,66.0,29.90,SSW,210,3.0,-999.0,100,-99.99,,,-99.99,,2013-06-18 07:22:00,
2013-06-18 03:33:00,68.0,68.0,29.89,SSW,210,1.0,-999.0,100,-99.99,,,-99.99,,2013-06-18 07:33:00,
2013-06-18 03:43:00,68.0,68.0,29.89,SSW,200,3.0,-999.0,100,-99.99,,,-99.99,,2013-06-18 07:43:00,
2013-06-18 03:53:00,66.0,66.0,29.89,SSW,210,2.0,-999.0,100,-99.99,,,-99.99,,2013-06-18 07:53:00,
2013-06-18 04:02:00,66.0,66.0,29.88,SSW,200,5.0,-999.0,100,-99.99,,,-99.99,,2013-06-18 08:02:00,
2013-06-18 04:11:00,70.0,70.0,29.88,SW,220,5.0,-999.0,100,-99.99,,,-99.99,,2013-06-18 08:11:00,
2013-06-18 04:23:00,68.0,68.0,29.88,SW,220,3.0,-999.0,100,-99.99,,,-99.99,,2013-06-18 08:23:00,
2013-06-18 04:33:00,70.0,70.0,29.88,SW,220,6.0,-999.0,100,-99.99,,,-99.99,,2013-06-18 08:33:00,
2013-06-18 04:43:00,68.0,68.0,29.88,SSW,200,5.0,-999.0,100,-99.99,,,-99.99,,2013-06-18 08:43:00,
2013-06-18 04:52:00,70.0,70.0,29.88,SW,220,3.0,-999.0,100,-99.99,,,-99.99,,2013-06-18 08:52:00,
2013-06-18 05:02:00,68.0,68.0,29.89,WSW,240,2.0,-999.0,100,-99.99,,,-99.99,,2013-06-18 09:02:00,
2013-06-18 05:12:00,70.0,70.0,29.88,SSW,200,2.0,-999.0,100,-99.99,,,-99.99,,2013-06-18 09:12:00,
2013-06-18 05:22:00,68.0,68.0,29.88,North,0,0.0,-999.0,100,-99.99,,,-99.99,,2013-06-18 09:22:00,
2013-06-18 05:34:00,68.0,68.0,29.88,North,0,0.0,-999.0,100,-99.99,,,-99.99,,2013-06-18 09:34:00,
2013-06-18 05:43:00,66.0,66.0,29.89,North,0,0.0,-999.0,100,-99.99,,,-99.99,,2013-06-18 09:43:00,
2013-06-18 05:53:00,68.0,68.0,29.89,North,0,0.0,-999.0,100,-99.99,,,-99.99,,2013-06-18 09:53:00,
2013-06-18 06:02:00,66.0,66.0,29.89,North,0,0.0,-999.0,100,-99.99,,,-99.99,,2013-06-18 10:02:00,
2013-06-18 06:11:00,66.0,66.0,29.89,North,0,0.0,-999.0,100,-99.99,,,-99.99,,2013-06-18 10:11:00,
2013-06-18 06:22:00,68.0,68.0,29.89,North,0,0.0,-999.0,100,-99.99,,,-99.99,,2013-06-18 10:22:00,
2013-06-18 06:33:00,68.0,68.0,29.89,North,0,0.0,-999.0,100,-99.99,,,-99.99,,2013-06-18 10:33:00,
2013-06-18 06:43:00,68.0,68.0,29.89,North,0,0.0,-999.0,100,-99.99,,,-99.99,,2013-06-18 10:43:00,
2013-06-18 06:53:00,70.0,70.0,29.89,SW,220,3.0,-999.0,100,-99.99,,,-99.99,,2013-06-18 10:53:00,
2013-06-18 07:02:00,70.0,70.0,29.89,SW,230,2.0,-999.0,100,-99.99,,,-99.99,,2013-06-18 11:02:00,
2013-06-18 07:11:00,70.0,70.0,29.90,SW,220,5.0,-999.0,100,-99.99,,,-99.99,,2013-06-18 11:11:00,
2013-06-18 07:22:00,70.0,70.0,29.90,SW,220,5.0,-999.0,100,-99.99,,,-99.99,,2013-06-18 11:22:00,
2013-06-18 07:32:00,72.0,72.0,29.90,South,190,3.0,-999.0,100,-99.99,,,-99.99,,2013-06-18 11:32:00,
2013-06-18 07:43:00,72.0,72.0,29.90,SW,220,2.0,-999.0,100,-99.99,,,-99.99,,2013-06-18 11:43:00,
2013-06-18 07:52:00,72.0,72.0,29.90,SSW,210,3.0,-999.0,100,-99.99,,,-99.99,,2013-06-18 11:52:00,
2013-06-18 08:01:00,72.0,72.0,29.90,SSW,200,3.0,-999.0,100,-99.99,,,-99.99,,2013-06-18 12:01:00,
2013-06-18 08:11:00,73.0,73.0,29.90,SSW,200,6.0,-999.0,100,-99.99,,,-99.99,,2013-06-18 12:11:00,
2013-06-18 08:22:00,73.0,73.0,29.90,SW,220,5.0,-999.0,100,-99.99,,,-99.99,,2013-06-18 12:22:00,
2013-06-18 08:33:00,73.0,73.0,29.91,SSW,200,3.0,-999.0,100,-99.99,,,-99.99,,2013-06-18 12:33:00,
2013-06-18 08:43:00,73.0,73.0,29.91,South,190,5.0,-999.0,100,-99.99,,,-99.99,,2013-06-18 12:43:00,
2013-06-18 08:52:00,73.0,73.0,29.90,WSW,240,3.0,-999.0,100,-99.99,,,-99.99,,2013-06-18 12:52:00,
2013-06-18 09:02:00,73.0,73.0,29.90,SSW,210,5.0,-999.0,100,-99.99,,,-99.99,,2013-06-18 13:02:00,
2013-06-18 09:12:00,73.0,73.0,29.90,SW,220,5.0,-999.0,100,-99.99,,,-99.99,,2013-06-18 13:12:00,
2013-06-18 09:22:00,75.0,75.0,29.90,West,260,3.0,-999.0,100,-99.99,,,-99.99,,2013-06-18 13:22:00,
2013-06-18 09:33:00,75.0,75.0,29.90,WSW,240,5.0,-999.0,100,-99.99,,,-99.99,,2013-06-18 13:33:00,
2013-06-18 09:43:00,77.0,77.0,29.90,SW,220,5.0,-999.0,100,-99.99,,,-99.99,,2013-06-18 13:43:00,
2013-06-18 09:52:00,79.0,79.0,29.90,SW,230,3.0,-999.0,100,-99.99,,,-99.99,,2013-06-18 13:52:00,
2013-06-18 10:02:00,77.0,77.0,29.90,SSW,200,5.0,-999.0,100,-99.99,,,-99.99,,2013-06-18 14:02:00,
2013-06-18 10:11:00,79.0,79.0,29.89,West,280,1.0,-999.0,100,-99.99,,,-99.99,,2013-06-18 14:11:00,
2013-06-18 10:22:00,79.0,79.0,29.89,West,280,3.0,-999.0,100,-99.99,,,-99.99,,2013-06-18 14:22:00,
2013-06-18 10:33:00,79.0,79.0,29.88,WSW,240,1.0,-999.0,100,-99.99,,,-99.99,,2013-06-18 14:33:00,
2013-06-18 10:43:00,77.0,77.0,29.88,WSW,250,5.0,-999.0,100,-99.99,,,-99.99,,2013-06-18 14:43:00,
2013-06-18 10:53:00,79.0,79.0,29.88,West,270,2.0,-999.0,100,-99.99,,,-99.99,,2013-06-18 14:53:00,
2013-06-18 11:02:00,77.0,77.0,29.88,SW,230,3.0,-999.0,100,-99.99,,,-99.99,,2013-06-18 15:02:00,
2013-06-18 11:11:00,79.0,79.0,29.88,NNW,330,2.0,-999.0,100,-99.99,,,-99.99,,2013-06-18 15:11:00,
2013-06-18 11:22:00,79.0,79.0,29.88,SSE,150,2.0,-999.0,100,-99.99,,,-99.99,,2013-06-18 15:22:00,
2013-06-18 11:33:00,81.0,81.0,29.88,ESE,120,3.0,-999.0,100,-99.99,,,-99.99,,2013-06-18 15:33:00,
2013-06-18 11:43:00,81.0,81.0,29.88,South,170,3.0,-999.0,100,-99.99,,,-99.99,,2013-06-18 15:43:00,
2013-06-18 11:53:00,79.0,79.0,29.88,SSE,160,2.0,-999.0,100,-99.99,,,-99.99,,2013-06-18 15:53:00,
2013-06-18 12:01:00,79.0,79.0,29.87,SSE,160,6.0,-999.0,100,-99.99,,,-99.99,,2013-06-18 16:01:00,
2013-06-18 12:11:00,79.0,79.0,29.87,SSE,160,8.0,-999.0,100,-99.99,,,-99.99,,2013-06-18 16:11:00,
2013-06-18 12:23:00,81.0,81.0,29.87,SE,130,5.0,-999.0,100,-99.99,,,-99.99,,2013-06-18 16:23:00,
2013-06-18 12:33:00,81.0,81.0,29.87,SE,140,10.0,-999.0,100,-99.99,,,-99.99,,2013-06-18 16:33:00,
2013-06-18 12:43:00,79.0,79.0,29.85,South,190,9.0,-999.0,100,-99.99,,,-99.99,,2013-06-18 16:43:00,
2013-06-18 12:53:00,79.0,79.0,29.85,South,170,6.0,-999.0,100,-99.99,,,-99.99,,2013-06-18 16:53:00,
2013-06-18 13:02:00,77.0,77.0,29.85,SSE,150,8.0,-999.0,100,-99.99,,,-99.99,,2013-06-18 17:02:00,
2013-06-18 13:12:00,77.0,77.0,29.85,SSE,160,7.0,-999.0,100,-99.99,,,-99.99,,2013-06-18 17:12:00,
2013-06-18 13:22:00,77.0,77.0,29.84,South,190,8.0,-999.0,100,-99.99,,,-99.99,,2013-06-18 17:22:00,
2013-06-18 13:33:00,79.0,79.0,29.83,SSE,160,7.0,-999.0,100,-99.99,,,-99.99,,2013-06-18 17:33:00,
2013-06-18 13:43:00,77.0,77.0,29.83,South,180,8.0,-999.0,100,-99.99,,,-99.99,,2013-06-18 17:43:00,
2013-06-18 13:53:00,77.0,77.0,29.83,SSE,150,8.0,-999.0,100,-99.99,,,-99.99,,2013-06-18 17:53:00,
2013-06-18 14:02:00,77.0,77.0,29.82,South,180,9.0,-999.0,100,-99.99,,,-99.99,,2013-06-18 18:02:00,
2013-06-18 14:12:00,75.0,75.0,29.83,South,190,6.0,-999.0,100,-99.99,,,-99.99,,2013-06-18 18:12:00,
2013-06-18 14:22:00,75.0,75.0,29.82,South,190,12.0,-999.0,100,-99.99,,,-99.99,,2013-06-18 18:22:00,
2013-06-18 14:33:00,73.0,73.0,29.82,South,180,12.0,-999.0,100,-99.99,,,-99.99,,2013-06-18 18:33:00,
2013-06-18 14:42:00,73.0,73.0,29.82,SSW,200,8.0,-999.0,100,-99.99,,,-99.99,,2013-06-18 18:42:00,
2013-06-18 14:53:00,73.0,73.0,29.82,South,190,6.0,-999.0,100,-99.99,,,-99.99,,2013-06-18 18:53:00,
2013-06-18 15:02:00,73.0,73.0,29.82,SW,220,5.0,-999.0,100,-99.99,,,-99.99,,2013-06-18 19:02:00,
2013-06-18 15:12:00,73.0,73.0,29.82,SSE,160,3.0,-999.0,100,-99.99,,,-99.99,,2013-06-18 19:12:00,
2013-06-18 15:22:00,73.0,73.0,29.82,ESE,120,2.0,-999.0,100,-99.99,,,-99.99,,2013-06-18 19:22:00,
2013-06-18 15:33:00,72.0,72.0,29.82,SSW,200,5.0,-999.0,100,-99.99,,,-99.99,,2013-06-18 19:33:00,
2013-06-18 15:43:00,68.0,68.0,29.86,North,350,20.0,-999.0,100,-99.99,,,-99.99,,2013-06-18 19:43:00,
2013-06-18 15:52:00,66.0,66.0,29.86,North,350,8.0,-999.0,100,-99.99,,,-99.99,,2013-06-18 19:52:00,
2013-06-18 16:02:00,66.0,66.0,29.87,NW,320,8.0,-999.0,100,-99.99,,,-99.99,,2013-06-18 20:02:00,
2013-06-18 16:12:00,66.0,66.0,29.87,NNW,340,6.0,-999.0,100,-99.99,,,-99.99,,2013-06-18 20:12:00,
2013-06-18 16:23:00,66.0,66.0,29.86,North,10,9.0,-999.0,100,-99.99,,,-99.99,,2013-06-18 20:23:00,
2013-06-18 16:33:00,66.0,66.0,29.85,NNE,20,8.0,-999.0,100,-99.99,,,-99.99,,2013-06-18 20:33:00,
2013-06-18 16:43:00,64.0,64.0,29.85,NNE,20,7.0,-999.0,100,-99.99,,,-99.99,,2013-06-18 20:43:00,
2013-06-18 16:52:00,66.0,66.0,29.86,NNE,20,9.0,-999.0,100,-99.99,,,-99.99,,2013-06-18 20:52:00,
2013-06-18 17:02:00,64.0,64.0,29.86,NNE,30,9.0,-999.0,100,-99.99,,,-99.99,,2013-06-18 21:02:00,
2013-06-18 17:12:00,66.0,66.0,29.86,NNE,30,8.0,-999.0,100,-99.99,,,-99.99,,2013-06-18 21:12:00,
2013-06-18 17:23:00,64.0,64.0,29.86,NNE,30,9.0,-999.0,100,-99.99,,,-99.99,,2013-06-18 21:23:00,
2013-06-18 17:33:00,64.0,64.0,29.86,North,10,8.0,-999.0,100,-99.99,,,-99.99,,2013-06-18 21:33:00,
2013-06-18 17:43:00,64.0,64.0,29.85,NE,40,7.0,-999.0,100,-99.99,,,-99.99,,2013-06-18 21:43:00,
2013-06-18 17:52:00,64.0,64.0,29.85,NE,50,7.0,-999.0,100,-99.99,,,-99.99,,2013-06-18 21:52:00,
2013-06-18 18:02:00,64.0,64.0,29.84,ENE,60,9.0,-999.0,100,-99.99,,,-99.99,,2013-06-18 22:02:00,
2013-06-18 18:11:00,64.0,64.0,29.83,NE,50,13.0,-999.0,100,-99.99,,,-99.99,,2013-06-18 22:11:00,
2013-06-18 18:22:00,64.0,64.0,29.83,ENE,60,7.0,-999.0,100,-99.99,,,-99.99,,2013-06-18 22:22:00,
2013-06-18 18:34:00,64.0,64.0,29.82,ENE,70,10.0,-999.0,100,-99.99,,,-99.99,,2013-06-18 22:34:00,
2013-06-18 18:43:00,64.0,64.0,29.82,East,80,8.0,-999.0,100,-99.99,,,-99.99,,2013-06-18 22:43:00,
2013-06-18 18:53:00,64.0,64.0,29.82,East,90,7.0,-999.0,100,-99.99,,,-99.99,,2013-06-18 22:53:00,
2013-06-18 19:02:00,64.0,64.0,29.82,East,100,7.0,-999.0,100,-99.99,,,-99.99,,2013-06-18 23:02:00,
2013-06-18 19:12:00,66.0,66.0,29.82,East,80,8.0,-999.0,100,-99.99,,,-99.99,,2013-06-18 23:12:00,
2013-06-18 19:23:00,64.0,64.0,29.81,ENE,70,6.0,-999.0,100,-99.99,,,-99.99,,2013-06-18 23:23:00,
2013-06-18 19:37:00,66.0,66.0,29.81,East,100,7.0,-999.0,100,-99.99,,,-99.99,,2013-06-18 23:37:00,
2013-06-18 19:47:00,64.0,64.0,29.81,East,80,8.0,-999.0,100,-99.99,,,-99.99,,2013-06-18 23:47:00,
2013-06-18 19:53:00,66.0,66.0,29.81,East,80,9.0,-999.0,100,-99.99,,,-99.99,,2013-06-18 23:53:00,
2013-06-18 20:02:00,64.0,64.0,29.81,East,80,8.0,-999.0,100,-99.99,,,-99.99,,2013-06-19 00:02:00,
2013-06-18 20:12:00,66.0,66.0,29.80,East,80,8.0,-999.0,100,-99.99,,,-99.99,,2013-06-19 00:12:00,
2013-06-18 20:22:00,64.0,64.0,29.80,East,80,6.0,-999.0,100,-99.99,,,-99.99,,2013-06-19 00:22:00,
2013-06-18 20:33:00,66.0,66.0,29.80,East,80,9.0,-999.0,100,-99.99,,,-99.99,,2013-06-19 00:33:00,
2013-06-18 20:43:00,64.0,64.0,29.81,ENE,60,7.0,-999.0,100,-99.99,,,-99.99,,2013-06-19 00:43:00,
2013-06-18 20:53:00,66.0,66.0,29.81,East,80,8.0,-999.0,100,-99.99,,,-99.99,,2013-06-19 00:53:00,
2013-06-18 21:01:00,64.0,64.0,29.80,East,80,7.0,-999.0,100,-99.99,,,-99.99,,2013-06-19 01:01:00,
2013-06-18 21:11:00,66.0,66.0,29.82,ENE,70,7.0,-999.0,100,-99.99,,,-99.99,,2013-06-19 01:11:00,
2013-06-18 21:22:00,64.0,64.0,29.82,ENE,70,7.0,-999.0,100,-99.99,,,-99.99,,2013-06-19 01:22:00,
2013-06-18 21:32:00,64.0,64.0,29.80,East,80,12.0,-999.0,100,-99.99,,,-99.99,,2013-06-19 01:32:00,
2013-06-18 21:43:00,64.0,64.0,29.81,East,80,8.0,-999.0,100,-99.99,,,-99.99,,2013-06-19 01:43:00,
2013-06-18 21:53:00,64.0,64.0,29.81,East,90,10.0,-999.0,100,-99.99,,,-99.99,,2013-06-19 01:53:00,
2013-06-18 22:01:00,64.0,64.0,29.82,NE,40,6.0,-999.0,100,-99.99,,,-99.99,,2013-06-19 02:01:00,
2013-06-18 22:11:00,64.0,64.0,29.82,NE,40,5.0,-999.0,100,-99.99,,,-99.99,,2013-06-19 02:11:00,
2013-06-18 22:21:00,64.0,64.0,29.83,North,360,6.0,-999.0,100,-99.99,,,-99.99,,2013-06-19 02:21:00,
2013-06-18 22:32:00,64.0,64.0,29.84,NNW,340,6.0,-999.0,100,-99.99,,,-99.99,,2013-06-19 02:32:00,
2013-06-18 22:42:00,63.0,63.0,29.85,NNW,340,6.0,-999.0,100,-99.99,,,-99.99,,2013-06-19 02:42:00,
2013-06-18 22:52:00,63.0,63.0,29.85,North,350,3.0,-999.0,100,-99.99,,,-99.99,,2013-06-19 02:52:00,
2013-06-18 23:01:00,63.0,63.0,29.84,East,80,2.0,-999.0,100,-99.99,,,-99.99,,2013-06-19 03:01:00,
2013-06-18 23:11:00,63.0,63.0,29.85,NNW,340,7.0,-999.0,100,-99.99,,,-99.99,,2013-06-19 03:11:00,
2013-06-18 23:22:00,63.0,63.0,29.85,North,360,6.0,-999.0,100,-99.99,,,-99.99,,2013-06-19 03:22:00,
2013-06-18 23:33:00,63.0,63.0,29.85,North,10,3.0,-999.0,100,-99.99,,,-99.99,,2013-06-19 03:33:00,
2013-06-18 23:42:00,63.0,63.0,29.84,North,10,3.0,-999.0,100,-99.99,,,-99.99,,2013-06-19 03:42:00,
2013-06-18 23:52:00,63.0,63.0,29.85,North,0,7.0,-999.0,100,-99.99,,,-99.99,,2013-06-19 03:52:00,